ROMMA est une association bénévole à but non lucratif. Votre soutien est indispensable : ADHERER à ROMMA ou FAIRE un DON

Briord - (01, Ain)

Bugey (281 m)   Longitude: 05° 29' 13" E   Latitude: 45° 46' 37" N Station partenaire n°15
 

Détail journalier du     <<     >>

Température Precipitation Humidité Pression Vent Dir Rafale Dir. rafale Ensol.
Heure (°C) (mm) (%) (hPa) (km/h) (km/h) (min)
01:00 18.9082101100---0
02:00 20.008010121---18SSE0
03:00 19.1083101203NNE0
04:00 19.6084101205S0
05:00 20.308110121E13ESE0
06:00 19.4084101106N0
07:00 21.007810111ESE11E0
08:00 19.8085101105SE0
09:00 24.3073101106S40
10:00 26.706510111N10NNO60
11:00 28.705310116SSE19SSE60
12:00 30.305010119SE21S60
13:00 31.804910118SE24SSE60
14:00 32.9047101010SE29SE60
15:00 34.404510107SE26O60
16:00 34.904610097O27S60
17:00 35.304410084SE21SSE60
18:00 32.904610096SSE39SO20
19:00 32.004910084SSE27SE0
20:00 30.705310094SE21S0
21:00 29.705610103SE16SE0
22:00 29.105710122NO18N0
23:00 26.207110121ONO19NO0
minuit 24.9076101202SO0

Graphique du 09-08-2019

 

Serveur OMMA